Location: Forest
(37.3641°N, 79.2902°W)
Time: 04:42:49
(UTC+00:00)

BlueWalker 3 - Visible Passes

Search period start: 18 January 2026 00:00
Search period end: 28 January 2026 00:00
Orbit: 451 x 463 km, 53.2° (Epoch: 17 January)

Date Brightness Start Highest point End Pass type
(mag) Time Alt. Az. Time Alt. Az. Time Alt. Az.
18 Jan 3.5 00:19:33 10° SSW 00:21:14 23° S 00:21:14 23° S visible
18 Jan 2.8 23:44:31 10° S 23:47:35 27° SE 23:47:52 27° ESE visible
19 Jan 3.4 23:09:39 10° S 23:12:18 20° SE 23:14:26 13° E visible
20 Jan 3.8 00:46:15 10° WSW 00:48:12 26° W 00:48:12 26° W visible
21 Jan 2.3 00:10:42 10° WSW 00:14:11 51° NW 00:14:40 46° N visible
21 Jan 1.9 23:35:15 10° SW 23:38:47 70° NW 23:41:02 21° NE visible
22 Jan 1.7 22:59:50 10° SW 23:03:24 86° SE 23:06:59 10° NE visible
23 Jan 4.3 00:39:08 10° WNW 00:41:04 15° NNW 00:41:04 15° NNW visible
24 Jan 3.9 00:03:15 10° WNW 00:05:47 18° NNW 00:07:17 15° N visible
24 Jan 3.7 23:27:25 10° W 23:30:16 22° NNW 23:33:06 10° NNE visible
27 Jan 4.4 23:21:20 10° NNW 23:22:00 10° NNW 23:22:40 10° N visible
